TimeCST,TemperatureF,Dew PointF,Humidity,Sea Level PressureIn,VisibilityMPH,Wind Direction,Wind SpeedMPH,Gust SpeedMPH,PrecipitationIn,Events,Conditions,WindDirDegrees,DateUTC
12:51 AM,72.0,68.0,87,30.04,9.0,SSE,18.4,-,N/A,,Overcast,150,2013-01-28 06:51:00
1:51 AM,71.1,68.0,90,30.02,8.0,SSE,16.1,-,0.00,,Overcast,160,2013-01-28 07:51:00
2:51 AM,71.1,68.0,90,30.01,8.0,SSE,21.9,25.3,0.00,,Overcast,160,2013-01-28 08:51:00
3:51 AM,72.0,68.0,87,30.00,8.0,SSE,19.6,-,N/A,,Overcast,160,2013-01-28 09:51:00
4:45 AM,71.6,66.2,83,29.99,9.0,SSE,19.6,-,N/A,,Overcast,160,2013-01-28 10:45:00
4:51 AM,72.0,66.9,84,29.99,9.0,SSE,20.7,-,N/A,,Overcast,150,2013-01-28 10:51:00
5:51 AM,71.1,66.9,87,29.99,8.0,SSE,21.9,-,N/A,,Mostly Cloudy,150,2013-01-28 11:51:00
6:51 AM,71.1,68.0,90,30.01,8.0,SSE,19.6,-,N/A,,Overcast,150,2013-01-28 12:51:00
7:51 AM,72.0,66.9,84,30.04,6.0,SSE,13.8,-,N/A,,Haze,150,2013-01-28 13:51:00
8:51 AM,72.0,68.0,87,30.06,6.0,SSE,17.3,-,N/A,,Overcast,150,2013-01-28 14:51:00
9:51 AM,73.9,68.0,82,30.08,8.0,SSE,18.4,-,N/A,,Overcast,160,2013-01-28 15:51:00
10:12 AM,75.2,69.8,83,30.08,9.0,SSE,19.6,26.5,N/A,,Mostly Cloudy,150,2013-01-28 16:12:00
10:51 AM,75.9,68.0,76,30.06,10.0,SSE,26.5,34.5,N/A,,Mostly Cloudy,150,2013-01-28 16:51:00
11:51 AM,75.9,66.9,74,30.05,10.0,SSE,23.0,33.4,N/A,,Overcast,150,2013-01-28 17:51:00
11:58 AM,75.2,66.2,73,30.04,10.0,SSE,27.6,-,N/A,,Overcast,150,2013-01-28 17:58:00
12:51 PM,78.1,66.9,68,30.01,10.0,SSE,29.9,34.5,N/A,,Mostly Cloudy,150,2013-01-28 18:51:00
1:51 PM,79.0,66.9,66,29.96,10.0,SSE,28.8,38.0,N/A,,Overcast,160,2013-01-28 19:51:00
2:22 PM,78.8,66.2,65,29.95,10.0,SSE,32.2,36.8,N/A,,Overcast,150,2013-01-28 20:22:00
2:51 PM,80.1,68.0,67,29.94,10.0,SSE,28.8,40.3,N/A,,Mostly Cloudy,150,2013-01-28 20:51:00
3:51 PM,80.1,68.0,67,29.92,10.0,SSE,28.8,38.0,N/A,,Scattered Clouds,150,2013-01-28 21:51:00
4:51 PM,78.1,68.0,71,29.91,10.0,SSE,27.6,39.1,N/A,,Mostly Cloudy,150,2013-01-28 22:51:00
5:07 PM,77.0,68.0,74,29.91,10.0,SSE,27.6,35.7,N/A,,Scattered Clouds,150,2013-01-28 23:07:00
5:22 PM,75.2,68.0,78,29.91,10.0,SSE,31.1,38.0,N/A,,Mostly Cloudy,150,2013-01-28 23:22:00
5:48 PM,75.2,68.0,78,29.90,9.0,SSE,29.9,38.0,N/A,,Scattered Clouds,150,2013-01-28 23:48:00
5:51 PM,75.0,68.0,79,29.90,9.0,SSE,25.3,38.0,N/A,,Scattered Clouds,150,2013-01-28 23:51:00
6:06 PM,73.4,68.0,83,29.90,8.0,SSE,25.3,35.7,N/A,,Mostly Cloudy,150,2013-01-29 00:06:00
6:25 PM,73.4,68.0,83,29.91,8.0,SSE,25.3,32.2,N/A,,Mostly Cloudy,150,2013-01-29 00:25:00
6:51 PM,73.0,68.0,84,29.91,9.0,SSE,23.0,33.4,N/A,,Mostly Cloudy,150,2013-01-29 00:51:00
7:47 PM,73.4,68.0,83,29.92,9.0,SSE,25.3,-,N/A,,Scattered Clouds,150,2013-01-29 01:47:00
7:51 PM,73.0,68.0,84,29.91,9.0,SSE,25.3,-,N/A,,Scattered Clouds,150,2013-01-29 01:51:00
8:08 PM,73.4,68.0,83,29.92,9.0,SSE,24.2,32.2,N/A,,Overcast,150,2013-01-29 02:08:00
8:41 PM,73.4,68.0,83,29.93,9.0,SSE,21.9,-,N/A,,Overcast,150,2013-01-29 02:41:00
8:51 PM,73.0,68.0,84,29.93,9.0,SSE,20.7,28.8,N/A,,Overcast,150,2013-01-29 02:51:00
9:10 PM,73.4,68.0,83,29.93,9.0,SSE,19.6,27.6,N/A,,Overcast,150,2013-01-29 03:10:00
9:51 PM,73.0,69.1,87,29.94,9.0,SSE,20.7,27.6,N/A,,Overcast,160,2013-01-29 03:51:00
10:51 PM,73.0,69.1,87,29.93,8.0,SSE,26.5,31.1,N/A,,Overcast,160,2013-01-29 04:51:00
11:09 PM,71.6,68.0,88,29.92,7.0,SSE,21.9,28.8,N/A,,Overcast,160,2013-01-29 05:09:00
11:51 PM,72.0,69.1,91,29.91,8.0,South,19.6,28.8,N/A,,Overcast,170,2013-01-29 05:51:00